Hourly Data Report for October 12, 2015

All times are specified in Local Standard Time (LST). Add 1 hour to adjust for Daylight Saving Time where and when it is observed.

CLYDE RIVER A
NUNAVUT

70°29'09.000" N
68°31'01.000" W
26.50 m
2400804
71090
YCY

Download Data

Hourly Data (October 2015)
Hourly Data Report for October 12, 2015
Temp Definition
°C
Dew Point Temp Definition
°C
Rel Hum Definition
%
Wind Dir Definition
10's deg

Wind Spd Definition
km/h
Visibility Definition
km
Stn Press Definition
kPa
Hmdx Definition


Wind Chill Definition


Weather Definition


TIME
00:00 Legend Double Dagger -0.7 -1.6 94 31 22 16.1 99.89   -6 LegendNANA
01:00 Legend Double Dagger -0.9 -1.9 93 31 22 16.1 99.86   -7 LegendNANA
02:00 Legend Double Dagger -0.5 -1.5 93 32 22 16.1 99.84   -6 LegendNANA
03:00 Legend Double Dagger -0.8 -1.4 96 32 22 16.1 99.81   -7 LegendNANA
04:00 Legend Double Dagger -0.6 -0.9 98 33 21 16.1 99.79   -6 LegendNANA
05:00 Legend Double Dagger -0.8 -1.2 97 32 21 16.1 99.78   -6 LegendNANA
06:00 Legend Double Dagger -1.9 -2.3 97 32 15 16.1 99.77   -7 LegendNANA
07:00 Legend Double Dagger -1.5 -2.1 96 32 18 16.1 99.73   -7 LegendNANA
08:00 Legend Double Dagger -2.1 -2.7 96 32 17 16.1 99.73   -7 LegendNANA
09:00 Legend Double Dagger -1.3 -2.1 94 33 15 16.1 99.69   -6 LegendNANA
10:00 Legend Double Dagger -1.0 -2.0 93 32 17 16.1 99.62   -6 LegendNANA
11:00 Legend Double Dagger 0.2 -0.7 94 33 18 16.1 99.58     LegendNANA
12:00 Legend Double Dagger 0.3 -0.6 94 32 22 16.1 99.55     LegendNANA
13:00 Legend Double Dagger 0.3 -0.6 94 32 24 16.1 99.53     LegendNANA
14:00 Legend Double Dagger 0.1 -0.6 95 32 22 16.1 99.51     LegendNANA
15:00 Legend Double Dagger -0.2 -1.1 94 32 26 16.1 99.47   -6 LegendNANA
16:00 Legend Double Dagger -0.9 -1.5 95 32 30 16.1 99.46   -8 LegendNANA
17:00 Legend Double Dagger -0.8 -1.1 98 33 26 16.1 99.47   -7 LegendNANA
18:00 Legend Double Dagger -0.9 -1.5 96 32 26 16.1 99.45   -7 LegendNANA
19:00 Legend Double Dagger -1.4 -2.0 96 32 32 16.1 99.42   -9 LegendNANA
20:00 Legend Double Dagger -1.3 -2.1 94 32 30 16.1 99.39   -8 LegendNANA
21:00 Legend Double Dagger -1.2 -2.2 93 32 24 16.1 99.38   -7 LegendNANA
22:00 Legend Double Dagger -1.2 -2.0 94 31 18 16.1 99.34   -6 LegendNANA
23:00 Legend Double Dagger -1.4 -2.2 94 33 22 16.1 99.30   -7 LegendNANA

Notes on Data Quality.

Legend

  • E = Estimated
  • M = Missing
  • NA = Not Available
  • ‡ = Partner data that is not subject to review by the National Climate Archives
Date modified: